[[{"header":{"parameterUnit":"m.s-1","parameterCategory":1,"la1":30.2991,"la2":30.254,"lo1":-89.0895,"lo2":-89.0444,"dy":0.0017,"dx":0.0017,"nx":28,"ny":28,"refTime":"2025-06-15T21:00:00:Z","depth":0,"parameterNumber":2,"parameterNumberName":"U-component_of_WINDS"},"data":[0,0,0,0,0,0,0,0,0,0,0,0,0,0,0,0,0,0,0,0,0,0,0,0,0,0,0,0,0,0,0,0,0,0,0,0,0,0,0,0,0,0,0,0,0,0,0,0,0,0,0,0,0,0,0,0,0,0,1.6835,1.6837,0,1.7034,1.7036,1.7038,1.709,1.7089,1.7088,1.7087,1.7293,1.7299,1.7306,0,0,0,0,0,0,0,0,0,0,0,0,0,1.6504,1.6509,1.6835,1.6837,1.684,1.7033,1.7036,1.7039,1.709,1.7089,1.7087,1.7086,1.729,1.7298,1.7306,0,0,0,0,0,0,0,0,0,0,0,0,0,1.6669,1.6511,1.6834,1.6889,1.6896,1.7033,1.7036,1.7039,1.7091,1.7089,1.7087,1.7085,1.7288,1.7297,1.7307,1.7405,0,0,1.7338,1.7342,0,0,0,0,0,0,0,0,1.666,1.6682,1.6878,1.6885,1.6893,1.7035,1.6995,1.7162,1.7091,1.7017,1.7087,1.7084,1.7209,1.7225,1.7266,1.7415,1.7424,1.7339,1.7345,1.7349,1.7352,0,0,0,0,0,0,0,1.6648,1.6673,1.6914,1.6881,1.689,1.6904,1.6926,1.7027,1.7121,1.7023,1.7027,1.705,1.7212,1.7257,1.7272,1.7427,1.7338,1.7347,1.7353,1.7357,1.7666,1.7668,0,0,0,0,0,0,1.6627,1.6663,1.6907,1.692,1.677,1.6912,1.6936,1.6992,1.712,1.7137,1.7051,1.7052,1.7241,1.726,1.7279,1.7402,1.7349,1.7358,1.7364,1.7664,1.7667,1.7669,0,0,0,0,0,0,1.662,1.6648,1.6899,1.6793,1.6826,1.692,1.6981,1.6996,1.7041,1.7141,1.7158,1.7079,1.724,1.7265,1.7373,1.741,1.7363,1.7372,1.7661,1.7665,1.7668,1.7648,0,0,0,0,0,0,1.661,1.6645,1.6683,1.6793,1.6831,1.6989,1.6984,1.7002,1.7057,1.706,1.7171,1.7188,1.724,1.7358,1.7383,1.7423,1.7379,1.7659,1.7663,1.7667,1.7646,1.7651,1.7655,0,0,0,0,0,1.6598,1.667,1.6684,1.6713,1.688,1.6991,1.7013,1.7071,1.706,1.7099,1.7163,1.7185,1.7402,1.7369,1.7397,1.744,1.7657,1.7662,1.7667,1.7644,1.765,1.7654,0,0,0,0,0,0,1.6562,1.6685,1.6703,1.6812,1.689,1.7,1.705,1.7075,1.7158,1.7157,1.7226,1.7251,1.7355,1.7409,1.737,1.7542,1.753,1.7541,1.7503,1.7509,1.7513,1.7497,1.7388,0,0,0,0,0,1.6566,1.6645,1.675,1.6836,1.6875,1.6955,1.7006,1.7044,1.7128,1.7162,1.7235,1.7317,1.7404,1.746,1.7545,1.7655,1.768,1.7699,1.7703,1.7706,1.7714,1.7777,1.7786,1.7686,1.7686,1.7686,0,0,1.6576,1.6654,1.67,1.6831,1.6896,1.6977,1.6983,1.7069,1.713,1.7176,1.7282,1.7338,1.7435,1.7544,1.7596,1.7592,1.7748,1.7712,1.7714,1.7721,1.7783,1.7792,1.78,1.7689,1.7689,1.7688,0,0,1.6637,1.6703,1.6782,1.6848,1.6947,1.7,1.7019,1.7125,1.7164,1.7272,1.7308,1.7383,1.7531,1.7598,1.7651,1.7738,1.7761,1.7765,1.7786,1.7846,1.7854,1.7861,1.7892,1.7902,1.7773,1.7773,1.7773,0,1.6637,1.676,1.682,1.6905,1.6961,1.7006,1.7087,1.7148,1.727,1.7309,1.7303,1.749,1.7558,1.7684,1.7705,1.7747,1.7772,1.7752,1.7848,1.7856,1.7864,1.7894,1.7905,1.7773,1.7773,1.7773,1.7773,0,1.6756,1.6841,1.6894,1.7009,1.7072,1.7155,1.7228,1.7285,1.7318,1.7372,1.7482,1.7565,1.7669,1.7702,1.7735,1.7833,1.7827,1.7834,1.7822,1.7872,1.7901,1.7913,1.7772,1.7772,1.7772,1.7772,0,0,1.6797,1.6946,1.6964,1.7017,1.713,1.7198,1.7283,1.7383,1.743,1.7514,1.7587,1.7712,1.7719,1.778,1.7821,1.7874,1.7937,1.7874,1.7878,1.7883,1.8051,1.8044,1.8057,1.7954,1.7956,1.7958,1.8043,0,1.6871,1.7023,1.708,1.7205,1.7285,1.7329,1.7404,1.7481,1.7535,1.7611,1.7671,1.7758,1.7761,1.7798,1.7853,1.7918,1.7972,1.7913,1.8023,1.8026,1.7996,1.8072,1.8066,1.8141,1.8055,1.8057,1.8058,0,1.6977,1.706,1.7193,1.7296,1.7332,1.7397,1.7494,1.7567,1.7657,1.7692,1.776,1.7799,1.7891,1.7874,1.8002,1.7961,1.801,1.8049,1.8053,1.8065,1.8044,1.8085,1.8166,1.8177,1.8077,1.8075,1.8074,0,1.6993,1.7139,1.7237,1.7281,1.7405,1.745,1.7504,1.7592,1.7649,1.7734,1.7772,1.7867,1.7919,1.7992,1.8056,1.8038,1.8178,1.8167,1.8211,1.8209,1.8237,1.8234,1.8326,1.827,1.827,1.827,1.8269,0,1.7068,1.7148,1.7246,1.7306,1.7396,1.7462,1.7551,1.7607,1.7686,1.7759,1.7804,1.7871,1.7951,1.803,1.808,1.8179,1.8202,1.8234,1.8246,1.823,1.8225,1.8262,1.8258,1.8273,1.8272,1.8271,1.8271,0,1.7101,1.717,1.7279,1.7388,1.7417,1.7479,1.7572,1.7633,1.7689,1.7781,1.7806,1.7895,1.7989,1.806,1.8183,1.8217,1.8322,1.8336,1.8291,1.8297,1.8337,1.8332,1.8455,1.8474,1.8405,1.8406,1.8406,0,1.7144,1.7206,1.732,1.7372,1.7425,1.7508,1.7566,1.7634,1.7693,1.7801,1.7849,1.7947,1.8029,1.8178,1.8254,1.8349,1.8364,1.8401,1.8379,1.836,1.8364,1.8359,1.8366,1.8403,1.8404,1.8404,1.8405,0,1.7213,1.7244,1.7325,1.742,1.7488,1.7565,1.7644,1.7684,1.7766,1.783,1.7927,1.7991,1.8117,1.8213,1.8316,1.8373,1.8403,1.8411,1.8426,1.8409,1.838,1.8396,1.8299,1.8408,1.8407,1.8407,1.8407,1.8407,1.7252,1.7309,1.7398,1.7488,1.7554,1.7627,1.7689,1.7753,1.7835,1.7942,1.7978,1.8078,1.8168,1.8309,1.8367,1.8447,1.8447,1.8469,1.8474,1.8478,1.8477,1.8368,1.8466,1.8466,1.8466,1.8466,1.8466,0,1.7322,1.7382,1.7464,1.7572,1.7643,1.7665,1.7753,1.7811,1.7899,1.798,1.8059,1.8171,1.8266,1.835,1.8448,1.8496,1.8513,1.852,1.8516,1.8529,1.8471,1.8448,1.8505,1.8505,1.8505,1.8505,1.8505,1.8505,1.7367,1.7465,1.7507,1.7639,1.7699,1.7797,1.7845,1.7913,1.7978,1.81,1.8179,1.8233,1.8315,1.842,1.8508,1.8531,1.8565,1.8568,1.8594,1.8538,1.8533,1.8528,1.8507,1.8575,1.8575,1.8645,1.8646,1.8646]},{"header":{"parameterUnit":"m.s-1","parameterCategory":1,"la1":30.2991,"la2":30.254,"lo1":-89.0895,"lo2":-89.0444,"dy":0.0017,"dx":0.0017,"nx":28,"ny":28,"refTime":"2025-06-15T21:00:00:Z","depth":0,"parameterNumber":3,"parameterNumberName":"V-component_of_WINDS"},"data":[0,0,0,0,0,0,0,0,0,0,0,0,0,0,0,0,0,0,0,0,0,0,0,0,0,0,0,0,0,0,0,0,0,0,0,0,0,0,0,0,0,0,0,0,0,0,0,0,0,0,0,0,0,0,0,0,0,0,1.8838,1.8839,0,1.8965,1.8966,1.8968,1.8957,1.8955,1.8953,1.8951,1.9087,1.9093,1.9098,0,0,0,0,0,0,0,0,0,0,0,0,0,1.8592,1.8597,1.8838,1.8839,1.8841,1.8964,1.8966,1.8968,1.8957,1.8955,1.8952,1.895,1.9086,1.9092,1.9099,0,0,0,0,0,0,0,0,0,0,0,0,0,1.8707,1.8598,1.8837,1.885,1.8853,1.8964,1.8966,1.8968,1.8958,1.8955,1.8952,1.8949,1.9083,1.9091,1.9099,1.9208,0,0,1.9124,1.9128,0,0,0,0,0,0,0,0,1.8701,1.8716,1.8847,1.885,1.8852,1.8942,1.893,1.9049,1.8958,1.8918,1.8951,1.8948,1.9042,1.9053,1.9084,1.9215,1.9221,1.9125,1.913,1.9134,1.9136,0,0,0,0,0,0,0,1.8693,1.8711,1.8888,1.8849,1.8852,1.8852,1.8865,1.8952,1.8995,1.8921,1.8921,1.8936,1.9043,1.9076,1.9087,1.9223,1.9125,1.9132,1.9137,1.914,1.9451,1.9455,0,0,0,0,0,0,1.8681,1.8704,1.8884,1.8892,1.8768,1.8859,1.8873,1.8916,1.8994,1.9003,1.8938,1.8935,1.9063,1.9077,1.9091,1.9225,1.9133,1.9141,1.9146,1.9448,1.9452,1.9456,0,0,0,0,0,0,1.8676,1.8697,1.8879,1.8798,1.8821,1.8866,1.8914,1.892,1.8953,1.9006,1.9015,1.8963,1.9061,1.908,1.9179,1.923,1.9145,1.9152,1.9444,1.9449,1.9454,1.9492,0,0,0,0,0,0,1.8669,1.8695,1.8736,1.8799,1.8825,1.8963,1.8917,1.8925,1.8966,1.8963,1.9032,1.9041,1.9061,1.9167,1.9187,1.9239,1.9159,1.944,1.9446,1.9452,1.9487,1.9498,1.9508,0,0,0,0,0,1.866,1.8742,1.8738,1.8759,1.8876,1.8966,1.8981,1.9,1.897,1.9012,1.9047,1.9039,1.9221,1.9177,1.92,1.9255,1.9437,1.9445,1.9452,1.9482,1.9496,1.9508,0,0,0,0,0,0,1.8686,1.8751,1.8746,1.8851,1.8903,1.8963,1.9017,1.9014,1.9076,1.9071,1.9094,1.9109,1.921,1.9242,1.9193,1.9366,1.9325,1.9338,1.934,1.9354,1.9364,1.9355,1.9165,0,0,0,0,0,1.8703,1.8768,1.8822,1.891,1.8936,1.8972,1.9012,1.9022,1.9077,1.9099,1.9141,1.9197,1.9266,1.9312,1.9379,1.9491,1.9508,1.9541,1.9551,1.956,1.957,1.9634,1.965,1.9481,1.9481,1.948,0,0,1.8741,1.8784,1.8824,1.8916,1.8957,1.9026,1.899,1.9065,1.9117,1.9111,1.9207,1.924,1.9304,1.941,1.9459,1.9441,1.9621,1.9569,1.9575,1.9582,1.9644,1.966,1.9674,1.9486,1.9485,1.9484,0,0,1.8844,1.8883,1.8961,1.9002,1.9064,1.9088,1.9107,1.9168,1.9189,1.9285,1.9283,1.9346,1.9466,1.9511,1.955,1.9672,1.9668,1.9694,1.9749,1.9811,1.9824,1.9836,1.9881,1.9897,1.9704,1.9704,1.9704,0,1.8884,1.8985,1.9002,1.9076,1.9118,1.9114,1.9194,1.9234,1.9316,1.9346,1.9323,1.9473,1.9516,1.9634,1.9663,1.9695,1.9719,1.9686,1.982,1.9833,1.9844,1.9887,1.9904,1.9707,1.9707,1.9707,1.9706,0,1.9032,1.9102,1.9158,1.9235,1.9282,1.936,1.9389,1.9436,1.9442,1.9469,1.9568,1.9619,1.9697,1.9726,1.9733,1.9846,1.9832,1.9815,1.9775,1.9863,1.9904,1.992,1.9711,1.971,1.9709,1.9709,0,0,1.9155,1.924,1.926,1.9295,1.9364,1.942,1.9498,1.9572,1.9612,1.9669,1.9737,1.9838,1.9822,1.9867,1.9879,1.9933,2.0029,1.991,1.9912,1.9931,2.0158,2.0171,2.019,2.0026,2.0029,2.0031,2.0153,0,1.9266,1.9402,1.9419,1.954,1.9607,1.9604,1.9673,1.9724,1.9751,1.9813,1.9844,1.9916,1.9889,1.9916,1.9969,2.0005,2.0075,1.9997,2.0091,2.0094,2.0076,2.0211,2.0225,2.0337,2.0169,2.0171,2.0173,0,1.9414,1.9473,1.96,1.966,1.9689,1.975,1.982,1.9879,1.9937,1.9954,2.0003,2.0009,2.0092,2.0048,2.0164,2.0111,2.0151,2.0175,2.018,2.019,2.014,2.0226,2.0373,2.0391,2.0199,2.0197,2.0195,0,1.9493,1.9604,1.9695,1.9725,1.9797,1.984,1.9873,1.9928,1.9972,2.0034,2.0063,2.0135,2.0175,2.0231,2.0258,2.0223,2.0373,2.033,2.0391,2.039,2.0423,2.0421,2.058,2.0447,2.0447,2.0446,2.0446,0,1.9616,1.9694,1.9731,1.9787,1.9876,1.9896,1.9984,2.0015,2.0065,2.0129,2.0132,2.0192,2.0222,2.0288,2.031,2.0404,2.0422,2.0439,2.0444,2.0439,2.0437,2.0466,2.046,2.0451,2.045,2.0449,2.0448,0,1.9719,1.9746,1.9846,1.9905,1.9922,1.9985,2.0038,2.0093,2.012,2.0201,2.0221,2.0264,2.0342,2.0373,2.0469,2.0484,2.0593,2.0591,2.0572,2.0574,2.0633,2.0628,2.0817,2.0844,2.0692,2.0693,2.0695,0,1.9796,1.9856,1.9922,1.9963,1.9997,2.0065,2.0109,2.0132,2.0178,2.025,2.0298,2.0375,2.0438,2.0562,2.0604,2.0678,2.0679,2.074,2.069,2.0684,2.0682,2.0678,2.0685,2.075,2.0751,2.0753,2.0754,0,1.993,1.9941,2.0003,2.0072,2.0124,2.0179,2.0233,2.0268,2.03,2.0353,2.0431,2.0479,2.0577,2.0654,2.073,2.0767,2.0767,2.0769,2.0787,2.0784,2.0771,2.078,2.0599,2.0765,2.0764,2.0763,2.0762,2.0762,2.0023,2.0077,2.0132,2.0202,2.0245,2.0295,2.0351,2.0384,2.0449,2.0528,2.0538,2.0623,2.0682,2.0784,2.0823,2.0892,2.0876,2.0902,2.0909,2.0915,2.092,2.0759,2.0906,2.0905,2.0905,2.0905,2.0905,0,2.0159,2.0194,2.0258,2.0333,2.0389,2.0381,2.0441,2.0489,2.0563,2.0616,2.0678,2.0769,2.0844,2.0892,2.0968,2.1014,2.1016,2.1034,2.1031,2.104,2.0929,2.0906,2.1031,2.1031,2.1031,2.1031,2.1031,2.1031,2.0236,2.0326,2.0344,2.0457,2.0492,2.0573,2.0608,2.0656,2.0699,2.08,2.0862,2.0891,2.0944,2.1024,2.1094,2.1106,2.1135,2.1154,2.1165,2.1061,2.1048,2.1035,2.1014,2.1159,2.116,2.1271,2.1272,2.1273]}]]